Location: Alphen
(52.1351°N, 4.6549°E)
Time: 01:57:33
(UTC+00:00)

GEOS 3 Rocket - Pass Details

Date: 27 January 2021
Orbit: 771 x 848 km, 115.0° (Epoch: 26 February)

Event Time Altitude Azimuth Distance (km) Brightness Sun altitude
Rises 06:15:53 0° 164° (SSE) 3,371 7.3 -11.2°
Reaches altitude 10° 06:18:24 10° 174° (S) 2,450 6.4 -10.8°
Maximum altitude 06:23:14 34° 239° (WSW) 1,359 4.5 -10.1°
Enters shadow 06:27:58 11° 302° (WNW) 2,425 5.5 -9.4°
